COSMOS 1275 DEB, 42176

Orbit data source: Space-Track

COSMOS 1275 DEB, 42176 is space debris in LEO originally from a launch on Thu, 04 Jun 1981 UTC launched from the Plesetsk Missile And Space Complex (PKMTR). Debris objects in space refer to the collection of defunct objects orbiting the Earth. Examples of debris include non-operational satellites, rocket bodies, and fragments generated from explosions, collisions, or faulty payload assembly.

Loading next visibility...
Identifier
42176, 1981-053SQ
Orbit
LEO
Country
Flag of CISCIS
Related business
Manufacturer
Unknown
Mission
Spacecraft
Bus & Motor
Unknown
Mass
Unknown
Launch date (UTC)
1981-06-04 (45 years ago)
Launch vehicle
Unknown
Launch site
Plesetsk Missile And Space Complex (PKMTR)
Object type
Payload
Rocket body
Debris
Shape & HBR
Unknown shape, 0.1 m
Radar Cross Section
Small (<0.1 m²)

Expand to show TLE details & history
Last TLE update: 1 week ago

TLE from 1 week ago
0 COSMOS 1275 DEB
1 42176U 81053SQ  26230.15842653  .00000624  00000-0  62969-3 0  9991
2 42176  82.9019   9.1979 0104865 181.3570 354.8218 13.73439992637507
Epoch: 2026-08-18T03:48Z
TLE epoch observation values (Epoch: 2026-08-18T03:48:08.052Z)
Latitude
3.80899°
Longitude
165.16157°
Altitude
912.8 km
Speed
7.434 km/s
True Right ascension
12h 34m 54s
True Declination
3° 47' 12"
Sunlit
Object was in daylight at epoch
Visualization orbit readout
Latitude
Unknown
Longitude
Unknown
Altitude
Unknown
Speed
Unknown
Apparent Right ascension
Unknown
Apparent Declination
Unknown
Sunlit
N/A
Visualization observer readout
Local Sidereal Time
15:29:29
Azimuth
Unknown
Elevation
Unknown
Doppler factor
Unknown
Orbital elements
Apogee altitude
1,061.606 km
Perigee altitude
907.192 km
Semi-major axis
7,362.536 km
Eccentricity
0.01049
Inclination
82.9019°
RAAN
9.1979°
Arg. of periapsis
181.357°
True anomaly
354.71191°
Mean anomaly
354.8218°
Eccentric anomaly
354.767°
Mean motion
3.4356 °/min
Orbital period
104.79 mins
BSTAR
0.00062969
Loading maneuver chart data...
Computing Atmospheric mass density...
Loading historical data...
Loading historical data...
Loading historical data...
Loading historical data...
Loading historical data...
Loading historical data...
Loading historical data...

Documentation

Showing up to 5 results
|